Time,TemperatureF,DewpointF,PressureIn,WindDirection,WindDirectionDegrees,WindSpeedMPH,WindSpeedGustMPH,Humidity,HourlyPrecipIn,Conditions,Clouds,dailyrainin,SolarRadiationWatts/m^2,SoftwareType,DateUTC
2013-02-14 00:02:00,64.0,54.0,-100.00,SW,218,5.0,13.0,70,0.00,,,0.00,0.000000,,2013-02-14 10:02:00,
2013-02-14 00:11:00,64.0,54.0,-100.00,SW,218,5.0,13.0,70,0.00,,,0.00,0.000000,,2013-02-14 10:11:00,
2013-02-14 00:21:00,64.0,54.0,-100.00,SW,218,5.0,13.0,70,0.00,,,0.00,0.000000,,2013-02-14 10:21:00,
2013-02-14 00:31:00,64.0,54.0,-100.00,SW,218,5.0,13.0,70,0.00,,,0.00,0.000000,,2013-02-14 10:31:00,
2013-02-14 01:01:00,64.0,55.0,-100.00,SSW,200,4.0,17.0,72,0.00,,,0.00,0.000000,,2013-02-14 11:01:00,
2013-02-14 01:11:00,64.0,55.0,-100.00,SSW,200,4.0,17.0,72,0.00,,,0.00,0.000000,,2013-02-14 11:11:00,
2013-02-14 01:21:00,64.0,55.0,-100.00,SSW,200,4.0,17.0,72,0.00,,,0.00,0.000000,,2013-02-14 11:21:00,
2013-02-14 01:31:00,64.0,55.0,-100.00,SSW,200,4.0,17.0,72,0.00,,,0.00,0.000000,,2013-02-14 11:31:00,
2013-02-14 01:52:00,65.0,56.0,-100.00,West,270,6.0,12.0,72,0.00,,,0.00,0.000000,,2013-02-14 11:52:00,
2013-02-14 02:01:00,65.0,56.0,-100.00,West,270,6.0,12.0,72,0.00,,,0.00,0.000000,,2013-02-14 12:01:00,
2013-02-14 02:11:00,65.0,56.0,-100.00,West,270,6.0,12.0,72,0.00,,,0.00,0.000000,,2013-02-14 12:11:00,
2013-02-14 02:22:00,65.0,56.0,-100.00,West,270,6.0,12.0,72,0.00,,,0.00,0.000000,,2013-02-14 12:22:00,
2013-02-14 02:31:00,65.0,56.0,-100.00,West,270,6.0,12.0,72,0.00,,,0.00,0.000000,,2013-02-14 12:31:00,
2013-02-14 03:01:00,65.0,55.0,-100.00,WSW,257,4.0,18.0,69,0.00,,,0.00,0.000000,,2013-02-14 13:01:00,
2013-02-14 03:11:00,65.0,55.0,-100.00,WSW,257,4.0,18.0,69,0.00,,,0.00,0.000000,,2013-02-14 13:11:00,
2013-02-14 03:21:00,65.0,55.0,-100.00,WSW,257,4.0,18.0,69,0.00,,,0.00,0.000000,,2013-02-14 13:21:00,
2013-02-14 03:31:00,65.0,55.0,-100.00,WSW,257,4.0,18.0,69,0.00,,,0.00,0.000000,,2013-02-14 13:31:00,
2013-02-14 04:01:00,65.0,53.0,-100.00,WSW,242,7.0,15.0,65,0.00,,,0.00,0.000000,,2013-02-14 14:01:00,
2013-02-14 04:11:00,65.0,53.0,-100.00,WSW,242,7.0,15.0,65,0.00,,,0.00,0.000000,,2013-02-14 14:11:00,
2013-02-14 04:21:00,65.0,53.0,-100.00,WSW,242,7.0,15.0,65,0.00,,,0.00,0.000000,,2013-02-14 14:21:00,
2013-02-14 04:31:00,65.0,53.0,-100.00,WSW,242,7.0,15.0,65,0.00,,,0.00,0.000000,,2013-02-14 14:31:00,
2013-02-14 04:52:00,62.0,52.0,-100.00,NW,319,3.0,9.0,69,0.00,,,0.00,0.000000,,2013-02-14 14:52:00,
2013-02-14 05:01:00,62.0,52.0,-100.00,NW,319,3.0,9.0,69,0.00,,,0.00,0.000000,,2013-02-14 15:01:00,
2013-02-14 05:11:00,62.0,52.0,-100.00,NW,319,3.0,9.0,69,0.00,,,0.00,0.000000,,2013-02-14 15:11:00,
2013-02-14 05:21:00,62.0,52.0,-100.00,NW,319,3.0,9.0,69,0.00,,,0.00,0.000000,,2013-02-14 15:21:00,
2013-02-14 05:31:00,62.0,52.0,-100.00,NW,319,3.0,9.0,69,0.00,,,0.00,0.000000,,2013-02-14 15:31:00,
2013-02-14 06:01:00,60.0,53.0,-100.00,NW,315,3.0,9.0,77,0.00,,,0.00,0.000000,,2013-02-14 16:01:00,
2013-02-14 06:11:00,60.0,53.0,-100.00,NW,315,3.0,9.0,77,0.00,,,0.00,0.000000,,2013-02-14 16:11:00,
2013-02-14 06:21:00,60.0,53.0,-100.00,NW,315,3.0,9.0,77,0.00,,,0.00,0.000000,,2013-02-14 16:21:00,
2013-02-14 06:31:00,60.0,53.0,-100.00,NW,315,3.0,9.0,77,0.00,,,0.00,0.000000,,2013-02-14 16:31:00,
2013-02-14 06:52:00,61.0,53.0,-100.00,NW,313,3.0,14.0,74,0.00,,,0.00,0.000000,,2013-02-14 16:52:00,
2013-02-14 07:01:00,61.0,53.0,-100.00,NW,313,3.0,14.0,74,0.00,,,0.00,0.000000,,2013-02-14 17:01:00,
2013-02-14 07:11:00,61.0,53.0,-100.00,NW,313,3.0,14.0,74,0.00,,,0.00,0.000000,,2013-02-14 17:11:00,
2013-02-14 07:21:00,61.0,53.0,-100.00,NW,313,3.0,14.0,74,0.00,,,0.00,0.000000,,2013-02-14 17:21:00,
2013-02-14 07:31:00,61.0,53.0,-100.00,NW,313,3.0,14.0,74,0.00,,,0.00,0.000000,,2013-02-14 17:31:00,
2013-02-14 08:01:00,64.0,55.0,-100.00,WNW,286,4.0,11.0,73,0.00,,,0.00,0.000000,,2013-02-14 18:01:00,
2013-02-14 08:11:00,64.0,55.0,-100.00,WNW,286,4.0,11.0,73,0.00,,,0.00,0.000000,,2013-02-14 18:11:00,
2013-02-14 08:22:00,64.0,55.0,-100.00,WNW,286,4.0,11.0,73,0.00,,,0.00,0.000000,,2013-02-14 18:22:00,
2013-02-14 08:31:00,64.0,55.0,-100.00,WNW,286,4.0,11.0,73,0.00,,,0.00,0.000000,,2013-02-14 18:31:00,
2013-02-14 09:02:00,70.0,55.0,-100.00,SSW,200,6.0,14.0,60,0.00,,,0.00,6.000000,,2013-02-14 19:02:00,
2013-02-14 09:11:00,70.0,55.0,-100.00,SSW,200,6.0,14.0,60,0.00,,,0.00,6.000000,,2013-02-14 19:11:00,
2013-02-14 09:21:00,70.0,55.0,-100.00,SSW,200,6.0,14.0,60,0.00,,,0.00,6.000000,,2013-02-14 19:21:00,
2013-02-14 09:31:00,70.0,55.0,-100.00,SSW,200,6.0,14.0,60,0.00,,,0.00,6.000000,,2013-02-14 19:31:00,
2013-02-14 10:01:00,73.0,57.0,-100.00,SSW,193,7.0,16.0,58,0.00,,,0.00,246.000000,,2013-02-14 20:01:00,
2013-02-14 10:11:00,73.0,57.0,-100.00,SSW,193,7.0,16.0,58,0.00,,,0.00,246.000000,,2013-02-14 20:11:00,
2013-02-14 10:21:00,73.0,57.0,-100.00,SSW,193,7.0,16.0,58,0.00,,,0.00,246.000000,,2013-02-14 20:21:00,
2013-02-14 10:31:00,73.0,57.0,-100.00,SSW,193,7.0,16.0,58,0.00,,,0.00,246.000000,,2013-02-14 20:31:00,
2013-02-14 11:02:00,78.0,58.0,-100.00,South,172,7.0,23.0,51,0.00,,,0.00,459.000000,,2013-02-14 21:02:00,
2013-02-14 11:11:00,78.0,58.0,-100.00,South,172,7.0,23.0,51,0.00,,,0.00,459.000000,,2013-02-14 21:11:00,
2013-02-14 11:21:00,78.0,58.0,-100.00,South,172,7.0,23.0,51,0.00,,,0.00,459.000000,,2013-02-14 21:21:00,
2013-02-14 11:31:00,78.0,58.0,-100.00,South,172,7.0,23.0,51,0.00,,,0.00,459.000000,,2013-02-14 21:31:00,
2013-02-14 12:02:00,73.0,55.0,-100.00,SE,143,5.0,21.0,54,0.00,,,0.00,843.000000,,2013-02-14 22:02:00,
2013-02-14 12:11:00,73.0,55.0,-100.00,SE,143,5.0,21.0,54,0.00,,,0.00,843.000000,,2013-02-14 22:11:00,
2013-02-14 12:21:00,73.0,55.0,-100.00,SE,143,5.0,21.0,54,0.00,,,0.00,843.000000,,2013-02-14 22:21:00,
2013-02-14 12:31:00,73.0,55.0,-100.00,SE,143,5.0,21.0,54,0.00,,,0.00,843.000000,,2013-02-14 22:31:00,
2013-02-14 13:01:00,74.0,54.0,-100.00,South,187,5.0,15.0,50,0.00,,,0.00,838.000000,,2013-02-14 23:01:00,
2013-02-14 13:11:00,74.0,54.0,-100.00,South,187,5.0,15.0,50,0.00,,,0.00,838.000000,,2013-02-14 23:11:00,
2013-02-14 13:21:00,74.0,54.0,-100.00,South,187,5.0,15.0,50,0.00,,,0.00,838.000000,,2013-02-14 23:21:00,
2013-02-14 13:31:00,74.0,54.0,-100.00,South,187,5.0,15.0,50,0.00,,,0.00,838.000000,,2013-02-14 23:31:00,
2013-02-14 14:01:00,77.0,55.0,-100.00,NNW,345,3.0,18.0,46,0.00,,,0.00,826.000000,,2013-02-15 00:01:00,
2013-02-14 14:11:00,77.0,55.0,-100.00,NNW,345,3.0,18.0,46,0.00,,,0.00,826.000000,,2013-02-15 00:11:00,
2013-02-14 14:21:00,77.0,55.0,-100.00,NNW,345,3.0,18.0,46,0.00,,,0.00,826.000000,,2013-02-15 00:21:00,
2013-02-14 14:31:00,77.0,55.0,-100.00,NNW,345,3.0,18.0,46,0.00,,,0.00,826.000000,,2013-02-15 00:31:00,
2013-02-14 15:02:00,79.0,56.0,-100.00,SSE,150,6.0,17.0,45,0.00,,,0.00,706.000000,,2013-02-15 01:02:00,
2013-02-14 15:11:00,79.0,56.0,-100.00,SSE,150,6.0,17.0,45,0.00,,,0.00,706.000000,,2013-02-15 01:11:00,
2013-02-14 15:21:00,79.0,56.0,-100.00,SSE,150,6.0,17.0,45,0.00,,,0.00,706.000000,,2013-02-15 01:21:00,
2013-02-14 15:31:00,79.0,56.0,-100.00,SSE,150,6.0,17.0,45,0.00,,,0.00,706.000000,,2013-02-15 01:31:00,
2013-02-14 16:01:00,76.0,55.0,-100.00,West,262,6.0,16.0,49,0.00,,,0.00,809.000000,,2013-02-15 02:01:00,
2013-02-14 16:11:00,76.0,55.0,-100.00,West,262,6.0,16.0,49,0.00,,,0.00,809.000000,,2013-02-15 02:11:00,
2013-02-14 16:21:00,76.0,55.0,-100.00,West,262,6.0,16.0,49,0.00,,,0.00,809.000000,,2013-02-15 02:21:00,
2013-02-14 16:31:00,76.0,55.0,-100.00,West,262,6.0,16.0,49,0.00,,,0.00,809.000000,,2013-02-15 02:31:00,
2013-02-14 17:02:00,72.0,53.0,-100.00,SSW,194,6.0,21.0,51,0.00,,,0.00,734.000000,,2013-02-15 03:02:00,
2013-02-14 17:11:00,72.0,53.0,-100.00,SSW,194,6.0,21.0,51,0.00,,,0.00,734.000000,,2013-02-15 03:11:00,
2013-02-14 17:21:00,72.0,53.0,-100.00,SSW,194,6.0,21.0,51,0.00,,,0.00,734.000000,,2013-02-15 03:21:00,
2013-02-14 17:32:00,72.0,53.0,-100.00,SSW,194,6.0,21.0,51,0.00,,,0.00,734.000000,,2013-02-15 03:32:00,
2013-02-14 18:01:00,73.0,56.0,-100.00,NE,44,4.0,17.0,55,0.00,,,0.00,484.000000,,2013-02-15 04:01:00,
2013-02-14 18:11:00,73.0,56.0,-100.00,NE,44,4.0,17.0,55,0.00,,,0.00,484.000000,,2013-02-15 04:11:00,
2013-02-14 18:21:00,73.0,56.0,-100.00,NE,44,4.0,17.0,55,0.00,,,0.00,484.000000,,2013-02-15 04:21:00,
2013-02-14 18:31:00,73.0,56.0,-100.00,NE,44,4.0,17.0,55,0.00,,,0.00,484.000000,,2013-02-15 04:31:00,
2013-02-14 19:02:00,68.0,56.0,-100.00,WSW,245,4.0,22.0,65,0.00,,,0.00,255.000000,,2013-02-15 05:02:00,
2013-02-14 19:11:00,68.0,56.0,-100.00,WSW,245,4.0,22.0,65,0.00,,,0.00,255.000000,,2013-02-15 05:11:00,
2013-02-14 19:22:00,68.0,56.0,-100.00,WSW,245,4.0,22.0,65,0.00,,,0.00,255.000000,,2013-02-15 05:22:00,
2013-02-14 19:32:00,68.0,56.0,-100.00,WSW,245,4.0,22.0,65,0.00,,,0.00,255.000000,,2013-02-15 05:32:00,
2013-02-14 20:02:00,67.0,56.0,-100.00,NNW,333,5.0,24.0,68,0.00,,,0.00,32.000000,,2013-02-15 06:02:00,
2013-02-14 20:11:00,67.0,56.0,-100.00,NNW,333,5.0,24.0,68,0.00,,,0.00,32.000000,,2013-02-15 06:11:00,
2013-02-14 20:21:00,67.0,56.0,-100.00,NNW,333,5.0,24.0,68,0.00,,,0.00,32.000000,,2013-02-15 06:21:00,
2013-02-14 20:31:00,67.0,56.0,-100.00,NNW,333,5.0,24.0,68,0.00,,,0.00,32.000000,,2013-02-15 06:31:00,
2013-02-14 21:01:00,65.0,55.0,-100.00,WSW,256,5.0,20.0,70,0.00,,,0.00,0.000000,,2013-02-15 07:01:00,
2013-02-14 21:11:00,65.0,55.0,-100.00,WSW,256,5.0,20.0,70,0.00,,,0.00,0.000000,,2013-02-15 07:11:00,
2013-02-14 21:21:00,65.0,55.0,-100.00,WSW,256,5.0,20.0,70,0.00,,,0.00,0.000000,,2013-02-15 07:21:00,
2013-02-14 21:31:00,65.0,55.0,-100.00,WSW,256,5.0,20.0,70,0.00,,,0.00,0.000000,,2013-02-15 07:31:00,
2013-02-14 22:01:00,67.0,56.0,-100.00,ENE,67,3.0,20.0,69,0.00,,,0.00,0.000000,,2013-02-15 08:01:00,
2013-02-14 22:11:00,67.0,56.0,-100.00,ENE,67,3.0,20.0,69,0.00,,,0.00,0.000000,,2013-02-15 08:11:00,
2013-02-14 22:21:00,67.0,56.0,-100.00,ENE,67,3.0,20.0,69,0.00,,,0.00,0.000000,,2013-02-15 08:21:00,
2013-02-14 22:31:00,67.0,56.0,-100.00,ENE,67,3.0,20.0,69,0.00,,,0.00,0.000000,,2013-02-15 08:31:00,
2013-02-14 23:01:00,67.0,56.0,-100.00,SE,142,5.0,18.0,67,0.00,,,0.00,0.000000,,2013-02-15 09:01:00,
2013-02-14 23:12:00,67.0,56.0,-100.00,SE,142,5.0,18.0,67,0.00,,,0.00,0.000000,,2013-02-15 09:12:00,
2013-02-14 23:21:00,67.0,56.0,-100.00,SE,142,5.0,18.0,67,0.00,,,0.00,0.000000,,2013-02-15 09:21:00,
2013-02-14 23:31:00,67.0,56.0,-100.00,SE,142,5.0,18.0,67,0.00,,,0.00,0.000000,,2013-02-15 09:31:00,